Regional Weather Roundup
Issued by NWS Albany, NY

Home | Current Version | Previous Version | Text Only | Print | Product List | Glossary On
Versions: 1 2 3 4 5 6 7 8 9 10 11 12 13 14 15 16 17 18 19 20 21 22 23 24 25 26 27 28 29 30 31 32 33 34 35 36 37 38 39 40 41 42 43 44 45 46 47 48 49 50
000
ASUS41 KALY 220210
RWRALY

NEW YORK STATE HOURLY WEATHER ROUNDUP
NATIONAL WEATHER SERVICE ALBANY NY
1000 PM EDT SUN MAY 21 2017

NOTE: "FAIR" INDICATES FEW OR NO CLOUDS BELOW 12,000 FEET WITH NO
SIGNIFICANT WEATHER AND/OR NO OBSTRUCTIONS TO VISIBILITY.

NYZ032-033-038>043-046>054-057>066-NYZ062>081-082-084-220300-
EAST


CITY           SKY/WX    TMP DP  RH WIND       PRES   REMARKS
ALBANY         CLOUDY    64  33  31 S18G25    30.18S
GLENS FALLS    NOT AVBL
POUGHKEEPSIE   CLOUDY    60  33  36 S8        30.25R
NEWBURGH       CLOUDY    59  36  41 S12       30.27R
MONTGOMERY     CLOUDY    59  34  39 S9        30.25R
WHITE PLAINS   CLOUDY    56  35  45 SE7       30.27S
ISLIP          CLOUDY    55  39  54 S7        30.29S
NEW YORK CITY  CLOUDY    61  38  42 S9        30.27S
CENTRAL PARK   CLOUDY    57  40  52 S8        30.30S
$$

NYZ005>009-017-018-044>046-055-056-220300-
CENTRAL


CITY           SKY/WX    TMP DP  RH WIND       PRES   REMARKS
FULTON         LGT RAIN  54  52  93 SE6       30.07F
SYRACUSE       LGT RAIN  54  52  93 NE5       30.07F
ROME           LGT RAIN  58  52  80 SE12      30.12S
ELMIRA         CLOUDY    61  40  45 SW12G24   30.09F
BINGHAMTON     LGT RAIN  58  41  53 S9G20     30.13F
MONTICELLO     CLOUDY    55  37  50 SE9       30.25S
$$

NYZ026>034-041>043-087-220300-
NORTH


CITY           SKY/WX    TMP DP  RH WIND       PRES   REMARKS
WATERTOWN      LGT RAIN  56  55  97 CALM      30.08S
FORT DRUM      NOT AVBL
OGDENSBURG     DRIZZLE   55  53  91 SE3       30.10F
MASSENA        LGT RAIN  55  51  86 SE6       30.14F
SARANAC LAKE   RAIN      50  49  96 E7        30.14F FOG
PLATTSBURGH    CLOUDY    56  48  74 CALM      30.15
$$

NYZ001>004-010>016-019>021-085-220300-
WEST


CITY           SKY/WX    TMP DP  RH WIND       PRES   REMARKS
NIAGARA FALLS  CLOUDY    61  54  77 S13       29.96S
BUFFALO        CLOUDY    60  54  80 S13       29.97S
DUNKIRK        PTCLDY    60  55  83 S18G29    29.95F
JAMESTOWN      CLOUDY    54  48  82 S14G20    30.03S
WELLSVILLE     CLOUDY    53  43  68 S10G20    30.09F
ROCHESTER      CLOUDY    57  48  72 S10       30.01S
PENN YAN       CLOUDY    54  44  69 S8        30.06F
$$

             KEY
       WCI = WIND CHILL INDEX
       VSB = VISIBILITY
       HX  = HEAT INDEX
$$



USA.gov is the U.S. government's official web portal to all federal, state and local government web resources and services.